Location: ????????
(55.4000°N, 39.1167°E)
Time: 02:45:15
(UTC+00:00)

Cosmos 1833 Rocket - Pass Details

Date: 19 May 2025
Orbit: 831 x 839 km, 71.0° (Epoch: 15 June)

Event Time Altitude Azimuth Distance (km) Brightness Sun altitude
Rises 18:42:13 0° 201° (SSW) 3,381 5.5 -7.5°
Reaches altitude 10° 18:44:39 10° 198° (SSW) 2,451 4.8 -7.8°
Maximum altitude 18:50:13 66° 118° (ESE) 917 2.7 -8.2°
Drops below altitude 10° 18:55:49 10° 37° (NE) 2,466 5.4 -8.7°
Sets 18:58:17 0° 35° (NE) 3,404 6.1 -8.9°
